カタログに戻る

STARLINK-6149

運用中通信VLEO
NORAD 57122·PAYLOAD·🇺🇸 United States

打ち上げ Jun 23, 2023 から Cape Canaveral Space Force Station

Loading…

次のパス (今後24時間)

TLE

最新Source: CelesTrak SupGP

元期: Sep 15, 2026, 02:24 UTC

1 57122C 23090X   26258.10048611  .00012665  00000+0  45873-3 0  2582
2 57122  43.0027 292.1743 0001294 264.5843 202.2179 15.27570762    17

AllMySatでSTARLINK-6149をリアルタイム追跡

Download on the App Store